Cloquet, MN

11:49 PM CST on December 07, 2019 (GMT -0600)
Cloquet Carlton County

Weather History for KCOQ - October, 2019

Change the Weather History Date:

Saturday, October 12, 2019

  Actual Average Record
Temperature  
Mean Temperature 34 °F -  
Max Temperature 35 °F 52 °F 75 °F (1996)
Min Temperature 32 °F 34 °F 3 °F (1998)
Degree Days  
Heating Degree Days 32    
Moisture  
Dew Point 29 °F    
Average Humidity 85    
Maximum Humidity 93    
Minimum Humidity 75    
Precipitation  
Precipitation 0.03 in - - ()
Sea Level Pressure  
Sea Level Pressure 29.45 in    
Wind  
Wind Speed 12 mph ()    
Max Wind Speed 20 mph    
Max Gust Speed 29 mph    
Visibility 5.4 miles    
Events Rain , Snow    
Averages and records for this station are not official NWS values.
T = Trace of Precipitation, MM = Missing Value Source: Averaged Metar Reports

Daily Weather History Graph

Daily Weather History Graph

Search for Another Location

Airport or City:

Astronomy

Oct. 12, 2019 Rise Set
Actual Time 7:23 AM CDT 6:28 PM CDT
Civil Twilight 6:52 AM CDT 6:59 PM CDT
Nautical Twilight 6:17 AM CDT 7:34 PM CDT
Astronomical Twilight 5:42 AM CDT 8:09 PM CDT
Moon 6:32 PM CDT (10/12) 5:51 AM CDT (10/12)
Length of Visible Light 12h 06m
Length of Day
11h 05m
Waxing Gibbous, 99% of the Moon is Illuminated
Oct 12
Waxing Gibbous
Oct 13
Full
Oct 21
Last Quarter
Oct 27
New
Nov 4
First Quarter

Hourly Weather History & Observations

Time (CDT) Temp. Windchill Dew Point Humidity Pressure Visibility Wind Dir Wind Speed Gust Speed Precip Events Conditions
12:15 AM 32.0 °F 22.1 °F 26.6 °F 80% 29.49 in 2.5 mi South 13.8 mph 19.6 mph N/A Snow Light Snow
12:35 AM 32.0 °F 23.0 °F 28.4 °F 87% 29.49 in 2.0 mi South 11.5 mph - N/A Snow Light Snow
12:36 AM 32.0 °F 23.0 °F 28.4 °F 87% 29.49 in 2.5 mi South 11.5 mph - N/A Snow Light Snow
12:55 AM 32.0 °F 21.2 °F 28.4 °F 87% 29.48 in 5.0 mi South 16.1 mph 23.0 mph N/A Snow Light Snow
1:15 AM 32.0 °F 21.2 °F 28.4 °F 87% 29.48 in 10.0 mi South 16.1 mph 19.6 mph N/A Snow Light Snow
1:35 AM 32.0 °F 21.2 °F 26.6 °F 80% 29.47 in 10.0 mi South 16.1 mph 23.0 mph N/A   Overcast
1:36 AM 32.0 °F 21.6 °F 26.6 °F 80% 29.47 in 10.0 mi South 15.0 mph 23.0 mph N/A   Overcast
1:55 AM 33.8 °F 23.9 °F 26.6 °F 75% 29.47 in 10.0 mi South 15.0 mph 27.6 mph N/A   Overcast
2:15 AM 33.8 °F 23.2 °F 26.6 °F 75% 29.46 in 10.0 mi South 17.3 mph 21.9 mph N/A   Overcast
2:16 AM 33.8 °F 23.2 °F 26.6 °F 75% 29.46 in 10.0 mi South 17.3 mph 21.9 mph N/A   Overcast
2:35 AM 33.8 °F 23.5 °F 26.6 °F 75% 29.46 in 7.0 mi South 16.1 mph 28.8 mph N/A Snow Light Snow
2:55 AM 33.8 °F 22.8 °F 26.6 °F 75% 29.45 in 10.0 mi SSW 18.4 mph 26.5 mph N/A   Overcast
3:15 AM 33.8 °F 23.9 °F 26.6 °F 75% 29.45 in 5.0 mi South 15.0 mph 26.5 mph N/A Snow Light Snow
3:35 AM 33.8 °F 24.3 °F 28.4 °F 81% 29.45 in 7.0 mi South 13.8 mph 27.6 mph N/A Snow Light Snow
3:55 AM 33.8 °F 22.8 °F 28.4 °F 81% 29.45 in 5.0 mi SSW 18.4 mph 26.5 mph N/A Snow Light Snow
3:56 AM 33.8 °F 23.2 °F 28.4 °F 81% 29.45 in 7.0 mi South 17.3 mph 26.5 mph N/A Snow Light Snow
4:15 AM 33.8 °F 24.8 °F 26.6 °F 75% 29.45 in 10.0 mi South 12.7 mph 23.0 mph N/A   Overcast
4:16 AM 33.8 °F 24.3 °F 26.6 °F 75% 29.44 in 10.0 mi South 13.8 mph 23.0 mph N/A   Overcast
4:35 AM 33.8 °F 23.5 °F 26.6 °F 75% 29.45 in 10.0 mi SSW 16.1 mph 21.9 mph N/A   Overcast
4:36 AM 33.8 °F 22.5 °F 26.6 °F 75% 29.45 in 10.0 mi South 19.6 mph 27.6 mph N/A   Overcast
4:55 AM 33.8 °F 24.3 °F 26.6 °F 75% 29.44 in 10.0 mi South 13.8 mph 21.9 mph N/A   Overcast
5:15 AM 33.8 °F 23.9 °F 26.6 °F 75% 29.44 in 7.0 mi South 15.0 mph 23.0 mph N/A   Overcast
5:16 AM 33.8 °F 23.5 °F 26.6 °F 75% 29.44 in 7.0 mi South 16.1 mph 23.0 mph N/A   Overcast
5:35 AM 32.0 °F 22.5 °F 28.4 °F 87% 29.44 in 2.5 mi South 12.7 mph 18.4 mph N/A Snow Light Snow
5:36 AM 32.0 °F 22.1 °F 28.4 °F 87% 29.44 in 2.5 mi South 13.8 mph 18.4 mph N/A Snow Light Snow
5:55 AM 32.0 °F 22.5 °F 28.4 °F 87% 29.44 in 2.5 mi South 12.7 mph 17.3 mph N/A Snow Light Snow
6:15 AM 32.0 °F 22.1 °F 28.4 °F 87% 29.43 in 7.0 mi South 13.8 mph 18.4 mph N/A Snow Light Snow
6:16 AM 32.0 °F 23.0 °F 28.4 °F 87% 29.44 in 7.0 mi South 11.5 mph 19.6 mph N/A Snow Light Snow
6:35 AM 32.0 °F 21.6 °F 28.4 °F 87% 29.43 in 10.0 mi South 15.0 mph 20.7 mph N/A   Overcast
6:36 AM 32.0 °F 22.5 °F 28.4 °F 87% 29.43 in 10.0 mi South 12.7 mph 20.7 mph N/A   Overcast
6:55 AM 32.0 °F 21.2 °F 28.4 °F 87% 29.43 in 10.0 mi South 16.1 mph 20.7 mph N/A   Overcast
7:15 AM 32.0 °F 23.0 °F 28.4 °F 87% 29.43 in 10.0 mi South 11.5 mph 24.2 mph N/A   Overcast
7:16 AM 32.0 °F 22.5 °F 28.4 °F 87% 29.43 in 10.0 mi South 12.7 mph 24.2 mph N/A   Overcast
7:35 AM 32.0 °F 22.5 °F 28.4 °F 87% 29.43 in 7.0 mi South 12.7 mph 19.6 mph N/A Snow Light Snow
7:55 AM 32.0 °F 21.6 °F 28.4 °F 87% 29.42 in 2.5 mi South 15.0 mph 24.2 mph N/A Snow Light Snow
8:15 AM 32.0 °F 22.5 °F 28.4 °F 87% 29.43 in 1.8 mi South 12.7 mph 19.6 mph N/A Snow Light Snow
8:35 AM 32.0 °F 22.1 °F 28.4 °F 87% 29.42 in 1.5 mi South 13.8 mph 20.7 mph N/A Snow Light Snow
8:55 AM 32.0 °F 22.1 °F 28.4 °F 87% 29.42 in 1.8 mi South 13.8 mph 19.6 mph N/A Snow Light Snow
8:56 AM 32.0 °F 21.6 °F 28.4 °F 87% 29.42 in 1.8 mi South 15.0 mph 19.6 mph N/A Snow Light Snow
9:15 AM 32.0 °F 23.6 °F 28.4 °F 87% 29.42 in 1.8 mi South 10.4 mph 20.7 mph N/A Snow Light Snow
9:35 AM 32.0 °F 23.0 °F 28.4 °F 87% 29.42 in 2.5 mi South 11.5 mph 17.3 mph N/A Snow Light Snow
9:36 AM 32.0 °F 23.0 °F 28.4 °F 87% 29.42 in 2.5 mi South 11.5 mph 17.3 mph N/A Snow Light Snow
9:55 AM 32.0 °F 23.0 °F 28.4 °F 87% 29.42 in 2.5 mi South 11.5 mph - N/A Snow Light Snow
10:15 AM 32.0 °F 22.1 °F 30.2 °F 93% 29.42 in 1.8 mi South 13.8 mph 19.6 mph N/A Snow Light Snow
10:35 AM 32.0 °F 22.5 °F 30.2 °F 93% 29.42 in 3.0 mi South 12.7 mph 20.7 mph N/A Snow Light Snow
10:36 AM 32.0 °F 22.5 °F 30.2 °F 93% 29.42 in 3.0 mi South 12.7 mph 20.7 mph N/A Snow Light Snow
10:55 AM 33.8 °F 25.3 °F 30.2 °F 87% 29.42 in 7.0 mi South 11.5 mph 19.6 mph N/A Snow Light Snow
11:15 AM 33.8 °F 24.8 °F 30.2 °F 87% 29.42 in 2.5 mi South 12.7 mph 17.3 mph N/A Snow Light Snow
11:16 AM 33.8 °F 24.8 °F 30.2 °F 87% 29.42 in 2.5 mi South 12.7 mph 17.3 mph N/A Snow Light Snow
11:35 AM 33.8 °F 25.8 °F 30.2 °F 87% 29.42 in 5.0 mi South 10.4 mph 20.7 mph N/A Snow Light Snow
11:55 AM 33.8 °F 25.3 °F 30.2 °F 87% 29.42 in 7.0 mi South 11.5 mph 17.3 mph N/A Snow Light Snow
11:56 AM 33.8 °F 24.8 °F 30.2 °F 87% 29.42 in 7.0 mi South 12.7 mph 17.3 mph N/A Snow Light Snow
12:15 PM 33.8 °F 23.9 °F 30.2 °F 87% 29.42 in 2.5 mi South 15.0 mph 21.9 mph N/A Snow Light Snow
12:16 PM 33.8 °F 24.8 °F 30.2 °F 87% 29.42 in 2.5 mi South 12.7 mph 21.9 mph N/A Snow Light Snow
12:35 PM 33.8 °F 25.3 °F 30.2 °F 87% 29.42 in 2.5 mi South 11.5 mph 20.7 mph N/A Snow Light Snow
12:55 PM 33.8 °F 26.4 °F 30.2 °F 87% 29.42 in 1.8 mi South 9.2 mph 19.6 mph N/A Snow Light Snow
1:15 PM 33.8 °F 24.8 °F 30.2 °F 87% 29.42 in 7.0 mi South 12.7 mph 18.4 mph N/A Snow Light Snow
1:35 PM 33.8 °F 27.0 °F 30.2 °F 87% 29.41 in 3.0 mi South 8.1 mph 21.9 mph N/A Snow Light Snow
1:55 PM 35.6 °F 25.5 °F 30.2 °F 81% 29.41 in 4.0 mi SSW 17.3 mph 24.2 mph N/A Snow Light Snow
1:56 PM 35.6 °F 27.5 °F 30.2 °F 81% 29.41 in 4.0 mi South 11.5 mph 24.2 mph N/A Snow Light Snow
2:15 PM 35.6 °F 27.1 °F 30.2 °F 81% 29.41 in 4.0 mi South 12.7 mph 23.0 mph N/A Rain Light Rain
2:16 PM 35.6 °F 28.0 °F 30.2 °F 81% 29.41 in 4.0 mi South 10.4 mph 23.0 mph N/A Rain Light Rain
2:35 PM 33.8 °F 24.8 °F 30.2 °F 87% 29.41 in 2.5 mi South 12.7 mph 19.6 mph N/A Snow Light Snow
2:36 PM 33.8 °F 25.3 °F 30.2 °F 87% 29.41 in 2.5 mi South 11.5 mph 19.6 mph N/A Snow Light Snow
2:55 PM 33.8 °F 26.4 °F 32.0 °F 93% 29.42 in 3.0 mi South 9.2 mph - N/A Snow Light Snow
2:56 PM 33.8 °F 26.4 °F 30.2 °F 87% 29.42 in 3.0 mi South 9.2 mph - N/A Snow Light Snow
3:15 PM 33.8 °F 26.4 °F 32.0 °F 93% 29.42 in 2.0 mi South 9.2 mph - 0.01 in Snow Light Snow
3:16 PM 33.8 °F 26.4 °F 32.0 °F 93% 29.42 in 2.0 mi South 9.2 mph - 0.01 in Snow Light Snow
3:35 PM 33.8 °F 27.0 °F 32.0 °F 93% 29.42 in 2.0 mi South 8.1 mph - 0.01 in Snow Light Snow
3:36 PM 33.8 °F 27.0 °F 32.0 °F 93% 29.42 in 1.8 mi South 8.1 mph - 0.01 in Snow Light Snow
3:55 PM 33.8 °F 27.7 °F 30.2 °F 87% 29.43 in 0.8 mi SSW 6.9 mph - 0.01 in Snow Light Snow
4:15 PM 33.8 °F 27.7 °F 32.0 °F 93% 29.43 in 3.0 mi South 6.9 mph - 0.01 in Snow Light Snow
4:35 PM 33.8 °F 26.4 °F 30.2 °F 87% 29.43 in 1.8 mi SSW 9.2 mph - 0.01 in Snow Light Snow
4:55 PM 33.8 °F 27.0 °F 32.0 °F 93% 29.43 in 3.0 mi SSW 8.1 mph - 0.01 in Snow Light Snow
5:15 PM 33.8 °F 27.7 °F 30.2 °F 87% 29.44 in 2.5 mi South 6.9 mph - N/A Snow Light Snow
5:35 PM 33.8 °F 26.4 °F 30.2 °F 87% 29.44 in 3.0 mi SSW 9.2 mph - N/A Snow Light Snow
5:55 PM 33.8 °F 27.0 °F 30.2 °F 87% 29.45 in 4.0 mi SSW 8.1 mph - 0.01 in Snow Light Snow
6:15 PM 33.8 °F 27.7 °F 30.2 °F 87% 29.46 in 5.0 mi SSW 6.9 mph - N/A Snow Light Snow
6:35 PM 33.8 °F 29.6 °F 30.2 °F 87% 29.46 in 7.0 mi SSW 4.6 mph - N/A Snow Light Snow
6:55 PM 33.8 °F 29.6 °F 30.2 °F 87% 29.47 in 5.0 mi SSW 4.6 mph - N/A Snow Light Snow
6:56 PM 33.8 °F 29.6 °F 30.2 °F 87% 29.47 in 5.0 mi SSW 4.6 mph - N/A Snow Light Snow
7:15 PM 33.8 °F 29.6 °F 30.2 °F 87% 29.48 in 5.0 mi SSW 4.6 mph - N/A Snow Light Snow
7:35 PM 33.8 °F 27.7 °F 30.2 °F 87% 29.48 in 5.0 mi SW 6.9 mph - N/A Snow Light Snow
7:36 PM 33.8 °F 27.7 °F 30.2 °F 87% 29.48 in 7.0 mi SW 6.9 mph - N/A Snow Light Snow
7:55 PM 33.8 °F 28.6 °F 30.2 °F 87% 29.48 in 10.0 mi SW 5.8 mph - N/A   Overcast
7:56 PM 33.8 °F 28.6 °F 30.2 °F 87% 29.48 in 10.0 mi SW 5.8 mph - N/A   Overcast
8:15 PM 33.8 °F 29.6 °F 30.2 °F 87% 29.48 in 10.0 mi SW 4.6 mph - N/A   Overcast
8:16 PM 33.8 °F 29.6 °F 30.2 °F 87% 29.48 in 10.0 mi SW 4.6 mph - N/A   Overcast
8:35 PM 33.8 °F 28.6 °F 30.2 °F 87% 29.49 in 5.0 mi SW 5.8 mph - N/A Snow Light Snow
8:36 PM 33.8 °F 28.6 °F 30.2 °F 87% 29.48 in 5.0 mi SW 5.8 mph - N/A Snow Light Snow
9:15 PM 33.8 °F 27.7 °F 30.2 °F 87% 29.49 in 5.0 mi WSW 6.9 mph - N/A Snow Light Snow
9:16 PM 33.8 °F 27.7 °F 30.2 °F 87% 29.49 in 5.0 mi WSW 6.9 mph - N/A Snow Light Snow
9:35 PM 33.8 °F 25.8 °F 30.2 °F 87% 29.49 in 7.0 mi WSW 10.4 mph - N/A   Overcast
9:36 PM 33.8 °F 26.4 °F 30.2 °F 87% 29.49 in 7.0 mi WSW 9.2 mph - N/A   Overcast
9:55 PM 33.8 °F 27.0 °F 30.2 °F 87% 29.50 in 10.0 mi WSW 8.1 mph - N/A   Overcast
10:15 PM 33.8 °F 27.0 °F 30.2 °F 87% 29.50 in 10.0 mi WSW 8.1 mph - N/A   Overcast
10:35 PM 33.8 °F 26.4 °F 30.2 °F 87% 29.50 in 5.0 mi WSW 9.2 mph - N/A Snow Light Snow
10:55 PM 33.8 °F 25.3 °F 30.2 °F 87% 29.50 in 4.0 mi WSW 11.5 mph - N/A Snow Light Snow
11:15 PM 33.8 °F 27.0 °F 30.2 °F 87% 29.50 in 10.0 mi WSW 8.1 mph - N/A   Overcast
11:35 PM 33.8 °F 27.0 °F 30.2 °F 87% 29.50 in 4.0 mi WSW 8.1 mph - N/A Snow Light Snow
11:55 PM 33.8 °F 26.4 °F 30.2 °F 87% 29.50 in 5.0 mi SW 9.2 mph - N/A Snow Light Snow
11:56 PM 33.8 °F 26.4 °F 30.2 °F 87% 29.50 in 5.0 mi WSW 9.2 mph - N/A Snow Light Snow